Погода в Тунгокочене

Погода в Тунгокочене : погода сейчас, прогноз погоды и архив. Всё, что Вы хотите узнать о погоде в Тунгокочене!

Хотите узнать прогноз погоды в Тунгокочене? Тогда Вам сюда: Погода в Тунгокочене

Поиск расширенной информации на нашем сайте:

Другие новости

Новости СМИ2

Главная страница сайта

Новости сайта

03.07.2017

Напоминаем, что на нашем специализированном сайте Метеоцентр.Азия вы можете получить высокодетализированные автоматические прогнозы погоды по пунктам России, СНГ и мира в авиационном формате (включающие направление и скорость ветра, видимость, явления погоды, количество и форму облачности, нижнюю и верхнюю границу облачности).

Рекомендуем: Как выбрать полотенцесушитель.

Погода в Тунгокочене - сегодня

Время (UTC), дата Ветер
(°,м/с) 
Видим.   Явления Облачность Т
(°С)
Тd
(°С)
f(%) Тe
(°С)
Pmin
(гПа)
dP
(гПа)
Po
(мм)
O2
(г/м3)
Тmin Tmax R s Состояние
почвы
21 20.10.17 тихо ()   20000 м    1/0 средняя 
[Ac lent]
-19.1 -20.3 90 -19  1036  -0.4  698  304           
00 21.10.17 тихо ()   20000 м    1/0 средняя 
[Ac lent]
-19.3 -20.5 90 -19  1036  -0.1  697  304  -19.6         
03 21.10.17 тихо ()   20000 м    ясно 
-8.3 -13 69 -8  1030.6  -0.8  697  291           
06 21.10.17 150 (ЮВ) 20000 м    ясно 
-0.4 -11.7 42 1025.4  -1.8  695  282           
09 21.10.17 тихо ()   20000 м    ясно 
-1.4 -12.5 43 -1  1025.4  -0.4  695  283           
12 21.10.17 тихо ()   20000 м    ясно 
-11.3 -13.3 85 -11  1030.6  1.2  696  294    +0.7       
15 21.10.17 тихо ()   20000 м    ясно 
-13 -14.3 90 -13  1032.3  0.9  697  296           
18 21.10.17 тихо ()   20000 м    ясно 
-14.6 -15.2 95 -15  1033  0.2  697  298           
21 21.10.17 тихо ()   20000 м    ясно 
-16 -16.6 95 -16  1034.4  0.5  697  300           
00 22.10.17 тихо ()   20000 м    3/0 верхняя 
[Ci fib]
-16 -17.3 90 -16  1034.5  0.1  697  300  -16.7         
03 22.10.17 тихо ()   20000 м    6/0 верхняя 
[Ci fib]
-4.4 -10 65 -4  1029.2  -0.5  697  286           
06 22.10.17 170 (Ю) 20000 м    10/0 верхняя 
[Ci fib]
+4.6 -6.2 45 +4  1023.3  -2.2  695  276           
09 22.10.17 180 (Ю) 20000 м    10/0 средняя, верхняя 
[Ac lent|Ci fib]
+2.2 -7 51 +2  1023.3  -0.8  695  278           
12 22.10.17 200 (Ю) 20000 м    6/0 верхняя 
[Ci fib]
-4.1 -7.9 75 -4  1026.1  0.3  695  285    +6       
15 22.10.17 тихо ()   20000 м    3/0 средняя, верхняя 
[Ac lent|Ci fib]
-8.3 -9.3 92 -8  1027.2  -0.4  695  289           
18 22.10.17 тихо ()   20000 м    3/0 средняя, верхняя 
[Ac lent|Ci fib]
-8.9 -9.6 95 -9  1026.4  -1  694  290           
21 22.10.17 тихо ()   20000 м    1/0 средняя 
[Ac lent]
-10.2 -10.8 95 -10  1025.8  -1  693  291           
00 23.10.17 тихо ()   20000 м    ясно 
-11 -11.6 95 -11  1025.1  -0.9  692  292  -11.2         
03 23.10.17 тихо ()   20000 м    3/0 верхняя 
[Ci fib]
-0.3 -4.7 72 -0  1019.4  -1.4  691  279           
06 23.10.17 180 (Ю) 20000 м    6/0 верхняя 
[Ci fib]
+7.1 -3.5 47 +6  1012.8  -3.5  689  271           
09 23.10.17 180 (Ю) 20000 м    10/0 средняя, верхняя 
[Ac lent|Ci fib]
+5.2 -4.9 48 +4  1012.3  -1.1  688  272           
12 23.10.17 190 (Ю) 20000 м    3/0 средняя, верхняя 
[Ac lent|Ci fib]
+1.7 -6 57 +1  1013.1  -0.4  688  276    +8       
15 23.10.17 260 (З) 20000 м    3/0 верхняя 
[Ci fib]
-7.1 -8 93 -7  1015.9  -0.5  687  285           
18 23.10.17 тихо ()   20000 м    4/0 средняя, верхняя 
[Ac lent|Ci fib]
-7.5 -8.1 95 -8  1016.6  0.5  688  286           
21 23.10.17 210 (ЮЗ) 20000 м    3/0 верхняя 
[Ci fib]
+0.6 -4.1 71 -2  1014.4  0.8  688  277           
Время (UTC), дата Ветер
(°,м/с) 
Видим.   Явления Облачность Т
(°С)
Тd
(°С)
f(%) Тe
(°С)
Pmin
(гПа)
dP
(гПа)
Po
(мм)
O2
(г/м3)
Тmin Tmax R s Состояние
почвы

Для получения пояснительной информации подведите курсор к названию столбца.

ПОГОДА в Тунгокочене - архив

Всё, что Вы хотите узнать о погоде в Тунгокочене - удобно и подробно!

Выберите нужную дату (начиная с 1 января 2015* года) и нажмите кнопку "Найти".
Будут отображены архивные сводки погоды по пункту Тунгокочен, начиная с указанной даты.


Отображать данные в формате CSV (для использования в таблицах Excel)


Внимание! Наш архив погоды предназначен исключительно для личного некоммерческого использования в познавательных целях. Если Вам необходимы официальные справки о состоянии погоды (для производственных, юридических, коммерческих и т.п. целей), обращайтесь в органы Росгидромета.

*Примечание: данная дата относится к архиву по метеостанциям СССР (Россия, СНГ, Балтия).
Архив по метеостанциям Зарубежной Европы и Азии (кроме Китая) хранится 10 дней, по другим регионам земного шара (Китай, Африка, Америка, Австралия, Океания) - 1 день.

Тунгокочен - район местоположения метеостанции


Название, широта, долгота, высота метеостанции:
Тунгокочен 53.5°ш. 115.6°д. 811 м над ур. моря [Российская Федерация]

Дополнительная информация

В oтличие oт бoльшинства пoгoдных сайтoв мы публикуем пoдрoбную метеoинфoрмацию в детальнoм прoфессиoнальнoм фoрмате.

Характеристики температуры и влажнoсти вoздуха измеряются на высoте 2 м в тени вдали oт зданий и деревьев.
Скoрoсть ветра измеряется на высoте 10 м (на урoвне рoста челoвека скoрoсть ветра ниже в 1.5-2 раза). Если метеoстанция нахoдится в гoрoде или в лесу, тo скoрoсть ветра занижена на 2-4 м/с пo сравнению с oткрытым местoм. Скoрoсть ветра над акватoриями крупных рек и oзёр, а также на вершинах хoлмoв на 2-5 м/с выше, чем в oбычных услoвиях.
Атмoсфернoе давление в разных тoчках местнoсти мoжет значительнo oтличаться oт давления на метеoстанции, в зависимoсти oт услoвий рельефа (при пoдъёме на 10 м давление пoнижается примернo на 1 мм рт.ст.).